2023-001P (55022 NORAD) Tracking and Keplerian Element Data

This shows tracking and keplerian element data for the satellite.

Feedback or suggestion? Click here.




ElementValue
Catalog55022
Name2023-001P
Epoch Orbit169
Epoch Day13.7868071
Epoch Year2023
RAAN75.7281
Inclination97.5017
Eccentricity0.0011691
Argument of Perigee174.5207
Mean Anonmoly185.6154
Mean Motion15.12431474
Decay Rate8.289E-05
L11 55022U 23001P 23013.78680710 .00008289 00000+0 47978-3 0 9990
L22 55022 97.5017 75.7281 0011691 174.5207 185.6154 15.12431474 1697



Live tracking and technical data element details for 2023-001P (NORAD 55022). 2023-001P can be tracked NOW for your location showing map with azimuth and elevation plus other details from your city location.







IsCatalogInMostPopularTable: catalog: 55022, numindb: 3
Update: records affected: 1



GetName: 55022 2023-001P

Hit Count: updated at: Tue, 07 Feb 2023 15:50:17 GMT